Time,TemperatureF,DewpointF,PressureIn,WindDirection,WindDirectionDegrees,WindSpeedMPH,WindSpeedGustMPH,Humidity,HourlyPrecipIn,Conditions,Clouds,dailyrainin,SoftwareType,DateUTC
2013-01-30 00:01:00,59.7,53.9,29.68,SSW,198,6.0,14.0,81,0.00,RA,RA,0.14,WeatherDisplay:10.37,2013-01-30 05:01:00,
2013-01-30 00:03:00,59.8,54.0,29.67,SW,218,7.7,11.5,81,0.00,RA,,0.00,WeatherDisplay:10.37,2013-01-30 05:03:00,
2013-01-30 00:04:00,59.8,54.0,29.67,South,182,3.8,11.5,81,0.00,RA,,0.00,WeatherDisplay:10.37,2013-01-30 05:04:00,
2013-01-30 00:09:00,59.8,54.0,29.66,South,188,12.2,19.6,81,0.00,RA,,0.00,WeatherDisplay:10.37,2013-01-30 05:09:00,
2013-01-30 00:14:00,60.0,54.2,29.66,SSW,198,7.1,12.7,81,0.00,BKN,,0.00,WeatherDisplay:10.37,2013-01-30 05:14:00,
2013-01-30 00:19:00,60.1,53.9,29.66,SW,218,6.1,12.7,80,0.00,BKN,,0.00,WeatherDisplay:10.37,2013-01-30 05:19:00,
2013-01-30 00:24:00,60.2,54.3,29.66,SSW,198,4.0,11.5,81,0.00,BKN,,0.00,WeatherDisplay:10.37,2013-01-30 05:24:00,
2013-01-30 00:29:00,60.2,54.3,29.65,SW,232,6.7,12.7,81,0.00,BKN,,0.00,WeatherDisplay:10.37,2013-01-30 05:29:00,
2013-01-30 00:34:00,60.2,54.3,29.65,SSW,198,8.7,13.8,81,0.00,BKN,,0.00,WeatherDisplay:10.37,2013-01-30 05:34:00,
2013-01-30 00:39:00,60.3,54.1,29.65,SSW,196,6.1,12.0,80,0.00,BKN,,0.00,WeatherDisplay:10.37,2013-01-30 05:39:00,
2013-01-30 00:44:00,60.5,54.3,29.64,SSW,192,11.6,18.4,80,0.00,BKN,,0.00,WeatherDisplay:10.37,2013-01-30 05:44:00,
2013-01-30 00:49:00,60.6,54.4,29.64,SW,217,8.0,13.8,80,0.00,BKN,,0.00,WeatherDisplay:10.37,2013-01-30 05:49:00,
2013-01-30 00:54:00,60.5,54.3,29.64,South,183,5.7,10.4,80,0.00,BKN,,0.00,WeatherDisplay:10.37,2013-01-30 05:54:00,
2013-01-30 00:59:00,60.5,54.3,29.64,SSW,207,4.4,14.0,80,0.00,BKN,,0.00,WeatherDisplay:10.37,2013-01-30 05:59:00,
2013-01-30 01:04:00,60.4,54.5,29.63,SSW,208,8.0,10.4,81,0.00,OVC,,0.00,WeatherDisplay:10.37,2013-01-30 06:04:00,
2013-01-30 01:09:00,60.4,54.5,29.62,SW,222,7.4,12.7,81,0.00,OVC,,0.00,WeatherDisplay:10.37,2013-01-30 06:09:00,
2013-01-30 01:14:00,60.5,54.3,29.62,SSW,192,7.0,11.5,80,0.00,OVC,,0.00,WeatherDisplay:10.37,2013-01-30 06:14:00,
2013-01-30 01:19:00,60.6,54.4,29.61,SSW,200,5.0,11.5,80,0.00,OVC,,0.00,WeatherDisplay:10.37,2013-01-30 06:19:00,
2013-01-30 01:24:00,60.6,54.4,29.61,SSE,163,6.4,11.5,80,0.00,OVC,,0.00,WeatherDisplay:10.37,2013-01-30 06:24:00,
2013-01-30 01:29:00,60.6,54.4,29.61,ESE,122,4.5,11.0,80,0.00,OVC,,0.00,WeatherDisplay:10.37,2013-01-30 06:29:00,
2013-01-30 01:34:00,60.7,54.5,29.61,SSE,158,5.8,11.5,80,0.00,OVC,,0.00,WeatherDisplay:10.37,2013-01-30 06:34:00,
2013-01-30 01:39:00,60.8,54.6,29.61,SSW,192,3.6,8.0,80,0.00,OVC,,0.00,WeatherDisplay:10.37,2013-01-30 06:39:00,
2013-01-30 01:44:00,60.8,54.6,29.60,SSW,202,6.0,9.0,80,0.00,OVC,,0.00,WeatherDisplay:10.37,2013-01-30 06:44:00,
2013-01-30 01:49:00,60.8,54.2,29.60,South,173,5.9,9.0,79,0.00,OVC,,0.00,WeatherDisplay:10.37,2013-01-30 06:49:00,
2013-01-30 01:54:00,60.8,54.2,29.59,SSW,213,5.2,18.4,79,0.00,OVC,,0.00,WeatherDisplay:10.37,2013-01-30 06:54:00,
2013-01-30 01:59:00,60.9,54.3,29.60,SW,221,7.5,11.5,79,0.00,OVC,,0.00,WeatherDisplay:10.37,2013-01-30 06:59:00,
2013-01-30 02:04:00,60.9,54.0,29.59,North,360,9.1,16.1,78,0.00,OVC,,0.00,WeatherDisplay:10.37,2013-01-30 07:04:00,
2013-01-30 02:09:00,60.9,54.0,29.59,SSW,193,6.3,11.5,78,0.00,OVC,,0.00,WeatherDisplay:10.37,2013-01-30 07:09:00,
2013-01-30 02:14:00,60.8,53.9,29.59,South,177,7.7,11.5,78,0.00,OVC,,0.00,WeatherDisplay:10.37,2013-01-30 07:14:00,
2013-01-30 02:19:00,60.7,53.4,29.58,SW,219,7.9,8.1,77,0.00,OVC,,0.00,WeatherDisplay:10.37,2013-01-30 07:19:00,
2013-01-30 02:24:00,60.6,53.3,29.58,SW,216,7.6,11.5,77,0.00,OVC,,0.00,WeatherDisplay:10.37,2013-01-30 07:24:00,
2013-01-30 02:29:00,60.5,53.3,29.58,South,175,8.2,11.5,77,0.00,OVC,,0.00,WeatherDisplay:10.37,2013-01-30 07:29:00,
2013-01-30 02:34:00,60.5,52.9,29.58,South,172,8.4,15.0,76,0.00,OVC,,0.00,WeatherDisplay:10.37,2013-01-30 07:34:00,
2013-01-30 02:39:00,60.4,52.8,29.58,South,176,9.4,12.7,76,0.00,OVC,,0.00,WeatherDisplay:10.37,2013-01-30 07:39:00,
2013-01-30 02:44:00,60.4,52.8,29.58,South,185,8.1,11.5,76,0.00,OVC,,0.00,WeatherDisplay:10.37,2013-01-30 07:44:00,
2013-01-30 02:49:00,60.4,52.8,29.57,SSW,201,6.2,13.8,76,0.00,OVC,,0.00,WeatherDisplay:10.37,2013-01-30 07:49:00,
2013-01-30 02:54:00,60.4,52.4,29.57,SSE,162,11.1,18.0,75,0.00,OVC,,0.00,WeatherDisplay:10.37,2013-01-30 07:54:00,
2013-01-30 02:59:00,60.5,52.5,29.57,SSW,211,8.0,16.1,75,0.00,OVC,,0.00,WeatherDisplay:10.37,2013-01-30 07:59:00,
2013-01-30 03:04:00,60.5,52.5,29.56,SSW,200,7.5,16.1,75,0.00,OVC,,0.00,WeatherDisplay:10.37,2013-01-30 08:04:00,
2013-01-30 03:09:00,60.5,52.5,29.55,SSW,199,7.6,13.0,75,0.00,OVC,,0.00,WeatherDisplay:10.37,2013-01-30 08:09:00,
2013-01-30 03:14:00,60.4,52.4,29.55,South,184,7.5,13.8,75,0.00,OVC,,0.00,WeatherDisplay:10.37,2013-01-30 08:14:00,
2013-01-30 03:19:00,60.4,52.4,29.54,SSW,205,7.0,10.4,75,0.00,OVC,,0.00,WeatherDisplay:10.37,2013-01-30 08:19:00,
2013-01-30 03:24:00,60.4,52.4,29.53,SSE,149,10.8,15.0,75,0.00,OVC,,0.00,WeatherDisplay:10.37,2013-01-30 08:24:00,
2013-01-30 03:29:00,60.4,52.4,29.53,South,188,11.0,23.0,75,0.00,OVC,,0.00,WeatherDisplay:10.37,2013-01-30 08:29:00,
2013-01-30 03:34:00,60.4,52.4,29.53,SSW,205,7.7,18.4,75,0.00,OVC,,0.00,WeatherDisplay:10.37,2013-01-30 08:34:00,
2013-01-30 03:39:00,60.4,52.4,29.53,SSW,192,5.4,5.8,75,0.00,OVC,,0.00,WeatherDisplay:10.37,2013-01-30 08:39:00,
2013-01-30 03:44:00,60.4,52.4,29.52,SSW,206,7.2,10.0,75,0.00,OVC,,0.00,WeatherDisplay:10.37,2013-01-30 08:44:00,
2013-01-30 03:49:00,60.3,52.3,29.52,SW,215,10.3,16.1,75,0.00,OVC,,0.00,WeatherDisplay:10.37,2013-01-30 08:49:00,
2013-01-30 03:54:00,60.3,52.3,29.52,SSE,167,10.9,17.3,75,0.00,OVC,,0.00,WeatherDisplay:10.37,2013-01-30 08:54:00,
2013-01-30 03:59:00,60.4,52.4,29.51,SSW,207,10.4,14.0,75,0.00,OVC,,0.00,WeatherDisplay:10.37,2013-01-30 08:59:00,
2013-01-30 04:04:00,60.5,52.5,29.50,SSW,209,8.8,16.1,75,0.00,OVC,,0.00,WeatherDisplay:10.37,2013-01-30 09:04:00,
2013-01-30 04:09:00,60.5,52.5,29.50,SW,214,10.3,11.5,75,0.00,OVC,,0.00,WeatherDisplay:10.37,2013-01-30 09:09:00,
2013-01-30 04:14:00,60.5,52.5,29.50,South,171,10.8,11.5,75,0.00,OVC,,0.00,WeatherDisplay:10.37,2013-01-30 09:14:00,
2013-01-30 04:19:00,60.5,52.5,29.50,SSE,157,6.7,11.0,75,0.00,OVC,,0.00,WeatherDisplay:10.37,2013-01-30 09:19:00,
2013-01-30 04:24:00,60.4,52.4,29.49,SSW,205,9.3,18.4,75,0.00,OVC,,0.00,WeatherDisplay:10.37,2013-01-30 09:24:00,
2013-01-30 04:29:00,60.4,52.4,29.49,North,360,9.1,19.6,75,0.00,OVC,,0.00,WeatherDisplay:10.37,2013-01-30 09:29:00,
2013-01-30 04:34:00,60.5,52.5,29.48,SSW,192,8.0,11.0,75,0.00,OVC,,0.00,WeatherDisplay:10.37,2013-01-30 09:34:00,
2013-01-30 04:39:00,60.5,52.5,29.48,South,180,7.3,13.8,75,0.00,OVC,,0.00,WeatherDisplay:10.37,2013-01-30 09:39:00,
2013-01-30 04:44:00,60.4,52.4,29.47,South,190,9.0,20.7,75,0.00,OVC,,0.00,WeatherDisplay:10.37,2013-01-30 09:44:00,
2013-01-30 04:49:00,60.5,52.5,29.47,SSW,194,9.3,14.0,75,0.00,OVC,,0.00,WeatherDisplay:10.37,2013-01-30 09:49:00,
2013-01-30 04:54:00,60.5,52.5,29.47,SSW,207,4.6,9.0,75,0.00,OVC,,0.00,WeatherDisplay:10.37,2013-01-30 09:54:00,
2013-01-30 04:59:00,60.5,52.2,29.47,SSE,157,8.3,9.2,74,0.00,OVC,,0.00,WeatherDisplay:10.37,2013-01-30 09:59:00,
2013-01-30 05:04:00,60.6,52.3,29.47,SSW,208,8.6,12.7,74,0.00,OVC,,0.00,WeatherDisplay:10.37,2013-01-30 10:04:00,
2013-01-30 05:09:00,60.7,52.4,29.47,SE,142,10.8,13.8,74,0.00,OVC,,0.00,WeatherDisplay:10.37,2013-01-30 10:09:00,
2013-01-30 05:14:00,60.8,52.5,29.46,SW,217,9.1,14.0,74,0.00,OVC,,0.00,WeatherDisplay:10.37,2013-01-30 10:14:00,
2013-01-30 05:19:00,60.9,52.6,29.46,SE,136,7.1,16.1,74,0.00,OVC,,0.00,WeatherDisplay:10.37,2013-01-30 10:19:00,
2013-01-30 05:24:00,61.0,52.7,29.45,North,360,6.6,13.8,74,0.00,OVC,,0.00,WeatherDisplay:10.37,2013-01-30 10:24:00,
2013-01-30 05:29:00,61.1,52.7,29.45,North,360,6.3,14.0,74,0.00,OVC,,0.00,WeatherDisplay:10.37,2013-01-30 10:29:00,
2013-01-30 05:34:00,61.2,52.8,29.45,North,360,8.8,11.5,74,0.00,OVC,,0.00,WeatherDisplay:10.37,2013-01-30 10:34:00,
2013-01-30 05:39:00,61.3,52.9,29.44,North,360,6.7,15.0,74,0.00,OVC,,0.00,WeatherDisplay:10.37,2013-01-30 10:39:00,
2013-01-30 05:44:00,61.4,53.0,29.44,North,360,7.5,13.8,74,0.00,OVC,,0.00,WeatherDisplay:10.37,2013-01-30 10:44:00,
2013-01-30 05:49:00,61.4,53.0,29.44,North,360,7.0,11.5,74,0.00,OVC,,0.00,WeatherDisplay:10.37,2013-01-30 10:49:00,
2013-01-30 05:54:00,61.4,53.0,29.43,North,360,7.5,17.3,74,0.00,OVC,,0.00,WeatherDisplay:10.37,2013-01-30 10:54:00,
2013-01-30 05:59:00,61.5,53.1,29.43,North,360,8.6,12.7,74,0.00,OVC,,0.00,WeatherDisplay:10.37,2013-01-30 10:59:00,
2013-01-30 06:04:00,61.6,53.2,29.44,North,360,5.1,13.8,74,0.00,BKN,,0.00,WeatherDisplay:10.37,2013-01-30 11:04:00,
2013-01-30 06:09:00,61.6,52.9,29.43,North,360,5.4,11.5,73,0.00,BKN,,0.00,WeatherDisplay:10.37,2013-01-30 11:09:00,
2013-01-30 06:14:00,61.6,53.2,29.42,North,360,6.7,11.5,74,0.00,BKN,,0.00,WeatherDisplay:10.37,2013-01-30 11:14:00,
2013-01-30 06:19:00,61.6,53.2,29.42,North,360,5.3,15.0,74,0.00,BKN,,0.00,WeatherDisplay:10.37,2013-01-30 11:19:00,
2013-01-30 06:24:00,61.7,53.3,29.42,South,188,11.8,15.0,74,0.00,BKN,,0.00,WeatherDisplay:10.37,2013-01-30 11:24:00,
2013-01-30 06:29:00,61.7,53.3,29.41,South,175,8.8,11.5,74,0.00,BKN,,0.00,WeatherDisplay:10.37,2013-01-30 11:29:00,
2013-01-30 06:34:00,61.8,53.4,29.41,South,178,9.9,18.4,74,0.00,BKN,,0.00,WeatherDisplay:10.37,2013-01-30 11:34:00,
2013-01-30 06:39:00,61.8,53.4,29.41,SSW,194,7.6,16.1,74,0.00,BKN,,0.00,WeatherDisplay:10.37,2013-01-30 11:39:00,
2013-01-30 06:44:00,61.7,53.3,29.41,South,191,9.9,9.9,74,0.00,BKN,,0.00,WeatherDisplay:10.37,2013-01-30 11:44:00,
2013-01-30 06:49:00,61.7,53.3,29.40,South,185,7.4,13.8,74,0.00,BKN,,0.00,WeatherDisplay:10.37,2013-01-30 11:49:00,
2013-01-30 06:54:00,61.6,53.2,29.40,SSW,205,7.4,11.5,74,0.00,BKN,,0.00,WeatherDisplay:10.37,2013-01-30 11:54:00,
2013-01-30 06:59:00,61.6,53.6,29.40,South,190,5.7,8.1,75,0.00,BKN,,0.00,WeatherDisplay:10.37,2013-01-30 11:59:00,
2013-01-30 07:04:00,61.5,53.5,29.40,SSE,163,5.5,8.1,75,0.00,OVC,,0.00,WeatherDisplay:10.37,2013-01-30 12:04:00,
2013-01-30 07:09:00,61.4,53.4,29.39,SSW,206,8.8,13.8,75,0.00,OVC,,0.00,WeatherDisplay:10.37,2013-01-30 12:09:00,
2013-01-30 07:14:00,61.5,53.5,29.39,SSW,200,5.9,11.0,75,0.00,OVC,,0.00,WeatherDisplay:10.37,2013-01-30 12:14:00,
2013-01-30 07:19:00,61.5,53.5,29.39,SSW,200,11.3,17.0,75,0.00,OVC,,0.00,WeatherDisplay:10.37,2013-01-30 12:19:00,
2013-01-30 07:24:00,61.5,53.9,29.38,SSW,208,10.1,20.7,76,0.00,OVC,,0.00,WeatherDisplay:10.37,2013-01-30 12:24:00,
2013-01-30 07:29:00,61.6,54.0,29.38,South,184,9.2,12.0,76,0.00,OVC,,0.00,WeatherDisplay:10.37,2013-01-30 12:29:00,
2013-01-30 07:34:00,61.6,54.0,29.38,SSE,160,9.2,18.4,76,0.00,OVC,,0.00,WeatherDisplay:10.37,2013-01-30 12:34:00,
2013-01-30 07:39:00,61.7,54.1,29.37,SSW,196,7.3,16.1,76,0.00,OVC,,0.00,WeatherDisplay:10.37,2013-01-30 12:39:00,
2013-01-30 07:44:00,61.8,54.2,29.36,South,186,8.4,11.5,76,0.00,OVC,,0.00,WeatherDisplay:10.37,2013-01-30 12:44:00,
2013-01-30 07:49:00,62.0,54.3,29.36,South,188,5.6,11.5,76,0.00,OVC,,0.00,WeatherDisplay:10.37,2013-01-30 12:49:00,
2013-01-30 07:54:00,62.1,54.4,29.35,South,173,8.4,18.4,76,0.00,OVC,,0.00,WeatherDisplay:10.37,2013-01-30 12:54:00,
2013-01-30 07:59:00,62.3,54.6,29.35,SSW,200,8.5,12.7,76,0.00,OVC,,0.00,WeatherDisplay:10.37,2013-01-30 12:59:00,
2013-01-30 08:04:00,62.5,54.8,29.35,South,182,8.3,15.0,76,0.00,OVC,,0.00,WeatherDisplay:10.37,2013-01-30 13:04:00,
2013-01-30 08:09:00,62.8,55.1,29.34,South,175,10.5,17.3,76,0.00,OVC,,0.00,WeatherDisplay:10.37,2013-01-30 13:09:00,
2013-01-30 08:14:00,63.1,55.4,29.34,North,360,9.1,14.0,76,0.00,OVC,,0.00,WeatherDisplay:10.37,2013-01-30 13:14:00,
2013-01-30 08:19:00,63.2,55.5,29.34,SW,227,9.3,24.0,76,0.00,OVC,,0.00,WeatherDisplay:10.37,2013-01-30 13:19:00,
2013-01-30 08:24:00,63.4,55.7,29.33,SSW,200,6.7,12.7,76,0.00,OVC,,0.00,WeatherDisplay:10.37,2013-01-30 13:24:00,
2013-01-30 08:29:00,63.4,56.1,29.33,SW,216,11.9,13.8,77,0.00,OVC,,0.00,WeatherDisplay:10.37,2013-01-30 13:29:00,
2013-01-30 08:34:00,63.4,56.4,29.32,SSE,161,4.8,9.2,78,0.00,OVC,,0.00,WeatherDisplay:10.37,2013-01-30 13:34:00,
2013-01-30 08:39:00,63.2,56.6,29.32,SSW,193,11.3,13.0,79,0.00,OVC,,0.00,WeatherDisplay:10.37,2013-01-30 13:39:00,
2013-01-30 08:44:00,63.1,56.8,29.32,South,190,4.6,11.5,80,0.01,RA,,0.01,WeatherDisplay:10.37,2013-01-30 13:44:00,
2013-01-30 08:49:00,63.0,56.7,29.32,South,187,8.4,15.0,80,0.01,RA,,0.01,WeatherDisplay:10.37,2013-01-30 13:49:00,
2013-01-30 08:54:00,63.1,56.8,29.32,SW,225,8.5,17.3,80,0.01,OVC,,0.01,WeatherDisplay:10.37,2013-01-30 13:54:00,
2013-01-30 08:59:00,63.3,57.0,29.33,SW,218,5.3,10.4,80,0.01,OVC,,0.01,WeatherDisplay:10.37,2013-01-30 13:59:00,
2013-01-30 09:04:00,63.7,56.7,29.33,SSW,207,12.3,21.9,78,0.01,-RA,,0.01,WeatherDisplay:10.37,2013-01-30 14:04:00,
2013-01-30 09:09:00,64.1,57.1,29.33,SSW,207,11.8,19.6,78,0.01,-RA,,0.01,WeatherDisplay:10.37,2013-01-30 14:09:00,
2013-01-30 09:14:00,64.4,57.4,29.34,North,360,11.5,11.5,78,0.01,-RA,,0.01,WeatherDisplay:10.37,2013-01-30 14:14:00,
2013-01-30 09:19:00,64.2,57.9,29.38,North,360,11.4,21.9,80,0.01,-RA,,0.04,WeatherDisplay:10.37,2013-01-30 14:19:00,
2013-01-30 09:24:00,62.5,58.6,29.42,North,360,12.2,23.0,87,0.12,-RA,,0.13,WeatherDisplay:10.37,2013-01-30 14:24:00,
2013-01-30 09:29:00,60.7,57.7,29.42,North,360,7.6,11.0,90,0.15,-RA,,0.15,WeatherDisplay:10.37,2013-01-30 14:29:00,
2013-01-30 09:34:00,59.5,57.2,29.43,North,360,8.2,11.5,92,0.16,-RA,,0.16,WeatherDisplay:10.37,2013-01-30 14:34:00,
2013-01-30 09:39:00,58.9,56.9,29.44,North,360,7.2,7.2,93,0.16,-RA,,0.16,WeatherDisplay:10.37,2013-01-30 14:39:00,
2013-01-30 09:44:00,58.5,56.8,29.43,North,360,2.6,6.9,94,0.15,-RA,,0.16,WeatherDisplay:10.37,2013-01-30 14:44:00,
2013-01-30 09:49:00,58.2,56.8,29.43,North,360,5.4,6.9,95,0.15,-RA,,0.16,WeatherDisplay:10.37,2013-01-30 14:49:00,
2013-01-30 09:54:00,58.0,56.6,29.44,North,360,3.0,4.6,95,0.15,-RA,,0.16,WeatherDisplay:10.37,2013-01-30 14:54:00,
2013-01-30 09:59:00,57.9,56.8,29.44,North,360,4.9,9.2,96,0.15,-RA,,0.16,WeatherDisplay:10.37,2013-01-30 14:59:00,
2013-01-30 10:04:00,57.8,56.7,29.43,North,360,3.5,3.5,96,0.16,-RA,,0.17,WeatherDisplay:10.37,2013-01-30 15:04:00,
2013-01-30 10:09:00,57.8,56.7,29.43,North,360,2.6,4.0,96,0.16,-RA,,0.17,WeatherDisplay:10.37,2013-01-30 15:09:00,
2013-01-30 10:14:00,57.7,56.6,29.43,North,360,1.8,5.0,96,0.16,-RA,,0.17,WeatherDisplay:10.37,2013-01-30 15:14:00,
2013-01-30 10:19:00,57.6,56.5,29.43,North,360,2.7,3.5,96,0.16,-RA,,0.17,WeatherDisplay:10.37,2013-01-30 15:19:00,
2013-01-30 10:24:00,57.5,56.4,29.42,North,360,1.2,4.0,96,0.05,-RA,,0.17,WeatherDisplay:10.37,2013-01-30 15:24:00,
2013-01-30 10:29:00,57.5,56.7,29.41,North,360,2.6,3.5,97,0.03,-RA,,0.18,WeatherDisplay:10.37,2013-01-30 15:29:00,
2013-01-30 10:34:00,57.5,56.7,29.41,North,360,4.1,8.1,97,0.02,-RA,,0.18,WeatherDisplay:10.37,2013-01-30 15:34:00,
2013-01-30 10:39:00,57.5,56.7,29.41,North,360,4.2,6.9,97,0.02,-RA,,0.18,WeatherDisplay:10.37,2013-01-30 15:39:00,
2013-01-30 10:44:00,57.5,56.7,29.42,North,360,3.7,7.0,97,0.02,-RA,,0.18,WeatherDisplay:10.37,2013-01-30 15:44:00,
2013-01-30 10:49:00,57.4,56.6,29.42,North,360,4.8,7.0,97,0.02,-RA,,0.18,WeatherDisplay:10.37,2013-01-30 15:49:00,
2013-01-30 10:54:00,57.4,56.6,29.41,North,360,5.5,5.5,97,0.03,-RA,,0.19,WeatherDisplay:10.37,2013-01-30 15:54:00,
2013-01-30 10:59:00,57.3,56.5,29.40,North,360,5.3,10.4,97,0.03,-RA,,0.19,WeatherDisplay:10.37,2013-01-30 15:59:00,
2013-01-30 11:04:00,57.2,56.4,29.39,North,360,7.8,7.8,97,0.02,-RA,,0.19,WeatherDisplay:10.37,2013-01-30 16:04:00,
2013-01-30 11:09:00,57.0,55.9,29.39,North,360,4.5,6.9,96,0.03,-RA,,0.20,WeatherDisplay:10.37,2013-01-30 16:09:00,
2013-01-30 11:14:00,56.9,55.8,29.39,North,360,5.3,15.0,96,0.03,-RA,,0.20,WeatherDisplay:10.37,2013-01-30 16:14:00,
2013-01-30 11:19:00,56.9,55.8,29.40,North,360,5.5,10.4,96,0.03,-RA,,0.20,WeatherDisplay:10.37,2013-01-30 16:19:00,
2013-01-30 11:24:00,56.8,55.7,29.40,North,360,4.4,6.9,96,0.03,-RA,,0.20,WeatherDisplay:10.37,2013-01-30 16:24:00,
2013-01-30 11:29:00,56.8,55.7,29.40,North,360,5.8,6.9,96,0.02,-RA,,0.20,WeatherDisplay:10.37,2013-01-30 16:29:00,
2013-01-30 11:34:00,56.9,55.8,29.39,North,360,3.6,6.0,96,0.02,-RA,,0.20,WeatherDisplay:10.37,2013-01-30 16:34:00,
2013-01-30 11:39:00,56.8,55.7,29.39,North,360,4.2,5.8,96,0.02,-RA,,0.20,WeatherDisplay:10.37,2013-01-30 16:39:00,
2013-01-30 11:44:00,56.8,55.7,29.38,North,360,5.0,8.1,96,0.02,-RA,,0.20,WeatherDisplay:10.37,2013-01-30 16:44:00,
2013-01-30 11:49:00,56.7,55.6,29.38,North,360,5.9,11.5,96,0.02,-RA,,0.20,WeatherDisplay:10.37,2013-01-30 16:49:00,
2013-01-30 11:54:00,56.7,55.3,29.38,North,360,9.1,13.8,95,0.01,-RA,,0.20,WeatherDisplay:10.37,2013-01-30 16:54:00,
2013-01-30 11:59:00,56.6,55.2,29.38,North,360,6.3,10.4,95,0.01,-RA,,0.20,WeatherDisplay:10.37,2013-01-30 16:59:00,
2013-01-30 12:04:00,56.6,55.2,29.37,North,360,8.1,12.0,95,0.01,-RA,,0.20,WeatherDisplay:10.37,2013-01-30 17:04:00,
2013-01-30 12:09:00,56.6,55.2,29.37,North,360,7.5,12.7,95,0.00,-RA,,0.20,WeatherDisplay:10.37,2013-01-30 17:09:00,
2013-01-30 12:14:00,56.6,55.2,29.38,North,360,7.4,11.5,95,0.00,-RA,,0.20,WeatherDisplay:10.37,2013-01-30 17:14:00,
2013-01-30 12:19:00,56.6,55.2,29.40,North,360,6.9,9.2,95,0.00,-RA,,0.21,WeatherDisplay:10.37,2013-01-30 17:19:00,
2013-01-30 12:24:00,56.6,55.2,29.40,North,360,9.5,16.1,95,0.01,-RA,,0.21,WeatherDisplay:10.37,2013-01-30 17:24:00,
2013-01-30 12:29:00,56.6,54.9,29.39,North,360,7.7,15.0,94,0.01,-RA,,0.21,WeatherDisplay:10.37,2013-01-30 17:29:00,
2013-01-30 12:34:00,56.5,54.8,29.38,North,360,6.6,10.4,94,0.01,-RA,,0.21,WeatherDisplay:10.37,2013-01-30 17:34:00,
2013-01-30 12:39:00,56.5,54.8,29.38,North,360,8.9,11.5,94,0.01,-RA,,0.21,WeatherDisplay:10.37,2013-01-30 17:39:00,
2013-01-30 12:44:00,56.5,54.8,29.37,North,360,10.0,13.8,94,0.01,-RA,,0.21,WeatherDisplay:10.37,2013-01-30 17:44:00,
2013-01-30 12:49:00,56.5,54.8,29.36,North,360,6.7,13.8,94,0.02,-RA,,0.22,WeatherDisplay:10.37,2013-01-30 17:49:00,
2013-01-30 12:54:00,56.5,54.8,29.36,North,360,3.9,10.4,94,0.02,-RA,,0.22,WeatherDisplay:10.37,2013-01-30 17:54:00,
2013-01-30 12:59:00,56.5,54.8,29.34,North,360,4.8,13.8,94,0.02,-RA,,0.22,WeatherDisplay:10.37,2013-01-30 17:59:00,
2013-01-30 13:04:00,56.5,54.8,29.32,North,360,6.0,12.7,94,0.02,-RA,,0.22,WeatherDisplay:10.37,2013-01-30 18:04:00,
2013-01-30 13:09:00,56.5,54.5,29.32,North,360,3.2,5.8,93,0.02,-RA,,0.22,WeatherDisplay:10.37,2013-01-30 18:09:00,
2013-01-30 13:14:00,56.5,54.5,29.32,North,360,5.4,11.0,93,0.02,-RA,,0.22,WeatherDisplay:10.37,2013-01-30 18:14:00,
2013-01-30 13:19:00,56.5,54.5,29.32,North,360,9.1,13.8,93,0.02,-RA,,0.22,WeatherDisplay:10.37,2013-01-30 18:19:00,
2013-01-30 13:24:00,56.6,54.6,29.32,North,360,4.3,9.2,93,0.01,-RA,,0.22,WeatherDisplay:10.37,2013-01-30 18:24:00,
2013-01-30 13:29:00,56.6,54.6,29.32,North,360,8.6,10.4,93,0.01,-RA,,0.22,WeatherDisplay:10.37,2013-01-30 18:29:00,
2013-01-30 13:34:00,56.6,54.3,29.31,North,360,11.8,16.1,92,0.01,-RA,,0.22,WeatherDisplay:10.37,2013-01-30 18:34:00,
2013-01-30 13:39:00,56.7,54.1,29.30,North,360,10.9,18.4,91,0.01,-RA,,0.22,WeatherDisplay:10.37,2013-01-30 18:39:00,
2013-01-30 13:44:00,56.8,54.2,29.30,North,360,8.0,16.1,91,0.01,-RA,,0.22,WeatherDisplay:10.37,2013-01-30 18:44:00,
2013-01-30 13:49:00,56.8,53.9,29.30,North,360,9.3,19.6,90,0.00,-RA,,0.22,WeatherDisplay:10.37,2013-01-30 18:49:00,
2013-01-30 13:54:00,56.9,54.0,29.30,North,360,13.6,17.3,90,0.00,-RA,,0.22,WeatherDisplay:10.37,2013-01-30 18:54:00,
2013-01-30 13:59:00,57.0,53.8,29.30,North,360,7.2,18.0,89,0.00,-RA,,0.22,WeatherDisplay:10.37,2013-01-30 18:59:00,
2013-01-30 14:04:00,57.0,53.8,29.30,North,360,9.2,19.6,89,0.00,OVC,,0.22,WeatherDisplay:10.37,2013-01-30 19:04:00,
2013-01-30 14:09:00,57.1,53.9,29.29,North,360,7.6,11.5,89,0.00,OVC,,0.22,WeatherDisplay:10.37,2013-01-30 19:09:00,
2013-01-30 14:14:00,57.1,53.9,29.30,North,360,7.2,17.3,89,0.00,OVC,,0.22,WeatherDisplay:10.37,2013-01-30 19:14:00,
2013-01-30 14:19:00,57.1,53.6,29.31,North,360,6.3,11.5,88,0.00,OVC,,0.22,WeatherDisplay:10.37,2013-01-30 19:19:00,
2013-01-30 14:24:00,57.1,53.6,29.31,North,360,8.6,18.4,88,0.00,OVC,,0.22,WeatherDisplay:10.37,2013-01-30 19:24:00,
2013-01-30 14:29:00,57.1,53.6,29.30,North,360,6.3,12.0,88,0.00,OVC,,0.22,WeatherDisplay:10.37,2013-01-30 19:29:00,
2013-01-30 14:34:00,57.1,53.3,29.29,North,360,11.0,21.9,87,0.00,OVC,,0.22,WeatherDisplay:10.37,2013-01-30 19:34:00,
2013-01-30 14:39:00,57.1,53.3,29.29,North,360,9.1,18.0,87,0.00,OVC,,0.22,WeatherDisplay:10.37,2013-01-30 19:39:00,
2013-01-30 14:44:00,57.1,53.0,29.29,North,360,15.3,19.6,86,0.00,OVC,,0.22,WeatherDisplay:10.37,2013-01-30 19:44:00,
2013-01-30 14:49:00,57.1,53.0,29.30,North,360,13.4,18.4,86,0.00,OVC,,0.22,WeatherDisplay:10.37,2013-01-30 19:49:00,
2013-01-30 14:54:00,57.2,53.0,29.30,North,360,8.3,12.7,86,0.00,OVC,,0.22,WeatherDisplay:10.37,2013-01-30 19:54:00,
2013-01-30 14:59:00,57.3,52.8,29.28,North,360,6.4,11.5,85,0.00,OVC,,0.22,WeatherDisplay:10.37,2013-01-30 19:59:00,
2013-01-30 15:04:00,57.3,52.8,29.28,North,360,9.1,11.0,85,0.00,-RA,,0.22,WeatherDisplay:10.37,2013-01-30 20:04:00,
2013-01-30 15:09:00,57.4,52.9,29.29,North,360,6.4,16.1,85,0.00,-RA,,0.22,WeatherDisplay:10.37,2013-01-30 20:09:00,
2013-01-30 15:14:00,57.5,52.7,29.30,North,360,7.4,13.8,84,0.00,-RA,,0.22,WeatherDisplay:10.37,2013-01-30 20:14:00,
2013-01-30 15:19:00,57.5,53.0,29.30,North,360,11.1,12.7,85,0.00,-RA,,0.22,WeatherDisplay:10.37,2013-01-30 20:19:00,
2013-01-30 15:24:00,57.5,53.0,29.27,North,360,10.4,12.7,85,0.00,-RA,,0.22,WeatherDisplay:10.37,2013-01-30 20:24:00,
2013-01-30 15:29:00,57.4,52.9,29.27,North,360,9.5,12.7,85,0.00,-RA,,0.22,WeatherDisplay:10.37,2013-01-30 20:29:00,
2013-01-30 15:34:00,57.4,52.9,29.27,North,360,9.5,20.7,85,0.00,-RA,,0.22,WeatherDisplay:10.37,2013-01-30 20:34:00,
2013-01-30 15:39:00,57.4,52.9,29.27,North,360,7.2,9.2,85,0.00,-RA,,0.22,WeatherDisplay:10.37,2013-01-30 20:39:00,
2013-01-30 15:44:00,57.3,52.8,29.27,North,360,5.8,13.8,85,0.00,-RA,,0.22,WeatherDisplay:10.37,2013-01-30 20:44:00,
2013-01-30 15:49:00,57.3,52.8,29.29,North,360,9.7,17.3,85,0.00,-RA,,0.22,WeatherDisplay:10.37,2013-01-30 20:49:00,
2013-01-30 15:54:00,57.2,52.7,29.31,North,360,6.9,11.5,85,0.00,-RA,,0.22,WeatherDisplay:10.37,2013-01-30 20:54:00,
2013-01-30 15:59:00,57.1,53.0,29.32,North,360,6.8,11.5,86,0.00,-RA,,0.22,WeatherDisplay:10.37,2013-01-30 20:59:00,
2013-01-30 16:04:00,56.9,52.8,29.31,North,360,4.6,8.1,86,0.00,OVC,,0.22,WeatherDisplay:10.37,2013-01-30 21:04:00,
2013-01-30 16:09:00,56.8,52.7,29.31,North,360,6.4,9.2,86,0.00,OVC,,0.22,WeatherDisplay:10.37,2013-01-30 21:09:00,
2013-01-30 16:14:00,56.8,52.7,29.30,North,360,8.7,13.8,86,0.00,OVC,,0.22,WeatherDisplay:10.37,2013-01-30 21:14:00,
2013-01-30 16:19:00,56.7,52.9,29.30,North,360,5.8,13.8,87,0.00,OVC,,0.22,WeatherDisplay:10.37,2013-01-30 21:19:00,
2013-01-30 16:24:00,56.6,52.8,29.30,North,360,9.0,11.5,87,0.00,OVC,,0.22,WeatherDisplay:10.37,2013-01-30 21:24:00,
2013-01-30 16:29:00,56.5,52.7,29.30,North,360,5.7,8.1,87,0.00,OVC,,0.22,WeatherDisplay:10.37,2013-01-30 21:29:00,
2013-01-30 16:34:00,56.4,52.9,29.30,North,360,4.7,10.4,88,0.00,OVC,,0.22,WeatherDisplay:10.37,2013-01-30 21:34:00,
2013-01-30 16:39:00,56.4,52.9,29.29,North,360,9.9,18.4,88,0.00,OVC,,0.22,WeatherDisplay:10.37,2013-01-30 21:39:00,
2013-01-30 16:44:00,56.3,52.8,29.28,North,360,5.8,8.1,88,0.00,OVC,,0.22,WeatherDisplay:10.37,2013-01-30 21:44:00,
2013-01-30 16:49:00,56.3,52.8,29.28,North,360,8.1,19.6,88,0.00,OVC,,0.22,WeatherDisplay:10.37,2013-01-30 21:49:00,
2013-01-30 16:54:00,56.3,52.8,29.26,North,360,9.6,18.4,88,0.00,OVC,,0.22,WeatherDisplay:10.37,2013-01-30 21:54:00,
2013-01-30 16:59:00,56.4,52.6,29.25,North,360,7.9,13.8,87,0.00,OVC,,0.22,WeatherDisplay:10.37,2013-01-30 21:59:00,
2013-01-30 17:04:00,56.3,52.8,29.24,North,360,7.8,11.5,88,0.00,OVC,,0.22,WeatherDisplay:10.37,2013-01-30 22:04:00,
2013-01-30 17:09:00,56.3,52.8,29.24,North,360,5.9,12.0,88,0.00,OVC,,0.22,WeatherDisplay:10.37,2013-01-30 22:09:00,
2013-01-30 17:14:00,56.2,52.7,29.23,North,360,12.0,15.0,88,0.00,OVC,,0.22,WeatherDisplay:10.37,2013-01-30 22:14:00,
2013-01-30 17:19:00,56.2,52.7,29.23,North,360,6.6,13.8,88,0.00,OVC,,0.22,WeatherDisplay:10.37,2013-01-30 22:19:00,
2013-01-30 17:24:00,56.1,52.6,29.22,North,360,5.6,9.2,88,0.00,OVC,,0.22,WeatherDisplay:10.37,2013-01-30 22:24:00,
2013-01-30 17:29:00,56.0,52.8,29.23,North,360,7.0,12.7,89,0.00,OVC,,0.22,WeatherDisplay:10.37,2013-01-30 22:29:00,
2013-01-30 17:34:00,55.9,52.7,29.23,North,360,9.0,11.5,89,0.00,OVC,,0.22,WeatherDisplay:10.37,2013-01-30 22:34:00,
2013-01-30 17:39:00,55.9,52.7,29.22,North,360,7.3,17.3,89,0.00,OVC,,0.22,WeatherDisplay:10.37,2013-01-30 22:39:00,
2013-01-30 17:44:00,55.8,52.6,29.23,North,360,6.0,11.0,89,0.00,OVC,,0.22,WeatherDisplay:10.37,2013-01-30 22:44:00,
2013-01-30 17:49:00,55.8,52.9,29.23,North,360,9.8,9.8,90,0.00,OVC,,0.22,WeatherDisplay:10.37,2013-01-30 22:49:00,
2013-01-30 17:54:00,55.8,52.9,29.22,North,360,7.0,18.4,90,0.00,OVC,,0.22,WeatherDisplay:10.37,2013-01-30 22:54:00,
2013-01-30 17:59:00,55.8,52.9,29.23,North,360,7.0,10.0,90,0.00,OVC,,0.22,WeatherDisplay:10.37,2013-01-30 22:59:00,
2013-01-30 18:04:00,55.9,53.0,29.24,North,360,7.3,11.5,90,0.00,OVC,,0.22,WeatherDisplay:10.37,2013-01-30 23:04:00,
2013-01-30 18:09:00,55.9,53.0,29.24,North,360,7.0,16.1,90,0.00,OVC,,0.22,WeatherDisplay:10.37,2013-01-30 23:09:00,
2013-01-30 18:14:00,55.9,53.0,29.23,North,360,3.5,11.5,90,0.00,OVC,,0.22,WeatherDisplay:10.37,2013-01-30 23:14:00,
2013-01-30 18:19:00,55.8,52.9,29.24,North,360,3.8,6.9,90,0.00,OVC,,0.22,WeatherDisplay:10.37,2013-01-30 23:19:00,
2013-01-30 18:24:00,55.8,52.9,29.23,North,360,5.0,6.9,90,0.00,OVC,,0.22,WeatherDisplay:10.37,2013-01-30 23:24:00,
2013-01-30 18:29:00,55.8,53.2,29.23,North,360,6.6,11.5,91,0.00,OVC,,0.22,WeatherDisplay:10.37,2013-01-30 23:29:00,
2013-01-30 18:34:00,55.9,53.0,29.22,North,360,3.9,8.1,90,0.00,OVC,,0.22,WeatherDisplay:10.37,2013-01-30 23:34:00,
2013-01-30 18:39:00,55.9,53.3,29.22,North,360,4.5,11.5,91,0.00,OVC,,0.22,WeatherDisplay:10.37,2013-01-30 23:39:00,
2013-01-30 18:44:00,56.0,53.4,29.21,North,360,7.2,12.7,91,0.00,OVC,,0.22,WeatherDisplay:10.37,2013-01-30 23:44:00,
2013-01-30 18:49:00,56.0,53.4,29.21,North,360,6.5,10.4,91,0.00,OVC,,0.22,WeatherDisplay:10.37,2013-01-30 23:49:00,
2013-01-30 18:54:00,56.1,53.2,29.20,North,360,7.9,10.4,90,0.00,OVC,,0.22,WeatherDisplay:10.37,2013-01-30 23:54:00,
2013-01-30 18:59:00,56.2,53.3,29.20,North,360,7.4,15.0,90,0.00,OVC,,0.22,WeatherDisplay:10.37,2013-01-30 23:59:00,
2013-01-30 19:04:00,56.2,53.3,29.19,North,360,5.5,10.0,90,0.00,OVC,,0.22,WeatherDisplay:10.37,2013-01-31 00:04:00,
2013-01-30 19:09:00,56.2,53.3,29.19,North,360,4.7,12.0,90,0.00,OVC,,0.22,WeatherDisplay:10.37,2013-01-31 00:09:00,
2013-01-30 19:14:00,56.2,53.3,29.19,North,360,5.2,7.0,90,0.00,OVC,,0.22,WeatherDisplay:10.37,2013-01-31 00:14:00,
2013-01-30 19:19:00,56.2,53.3,29.20,North,360,5.5,9.2,90,0.00,OVC,,0.22,WeatherDisplay:10.37,2013-01-31 00:19:00,
2013-01-30 19:24:00,56.2,53.3,29.18,North,360,8.0,13.8,90,0.00,OVC,,0.22,WeatherDisplay:10.37,2013-01-31 00:24:00,
2013-01-30 19:29:00,56.2,53.6,29.18,North,360,6.6,11.5,91,0.00,OVC,,0.22,WeatherDisplay:10.37,2013-01-31 00:29:00,
2013-01-30 19:34:00,56.1,53.5,29.18,North,360,8.6,11.5,91,0.00,OVC,,0.22,WeatherDisplay:10.37,2013-01-31 00:34:00,
2013-01-30 19:39:00,56.1,53.5,29.17,North,360,8.3,12.7,91,0.00,OVC,,0.22,WeatherDisplay:10.37,2013-01-31 00:39:00,
2013-01-30 19:44:00,56.1,53.5,29.17,North,360,7.7,11.5,91,0.00,OVC,,0.22,WeatherDisplay:10.37,2013-01-31 00:44:00,
2013-01-30 19:49:00,56.1,53.2,29.17,North,360,8.1,13.0,90,0.00,OVC,,0.22,WeatherDisplay:10.37,2013-01-31 00:49:00,
2013-01-30 19:54:00,56.1,53.2,29.16,North,360,7.1,12.7,90,0.00,OVC,,0.22,WeatherDisplay:10.37,2013-01-31 00:54:00,
2013-01-30 19:59:00,56.2,53.3,29.16,North,360,5.5,10.4,90,0.00,OVC,,0.22,WeatherDisplay:10.37,2013-01-31 00:59:00,
2013-01-30 20:04:00,56.2,53.0,29.16,North,360,7.1,19.6,89,0.00,OVC,,0.22,WeatherDisplay:10.37,2013-01-31 01:04:00,
2013-01-30 20:09:00,56.2,53.0,29.17,North,360,4.7,8.1,89,0.00,OVC,,0.22,WeatherDisplay:10.37,2013-01-31 01:09:00,
2013-01-30 20:14:00,56.2,53.0,29.16,North,360,5.5,11.5,89,0.00,OVC,,0.22,WeatherDisplay:10.37,2013-01-31 01:14:00,
2013-01-30 20:19:00,56.3,53.1,29.16,North,360,6.1,8.1,89,0.00,OVC,,0.22,WeatherDisplay:10.37,2013-01-31 01:19:00,
2013-01-30 20:24:00,56.4,52.9,29.16,North,360,7.3,11.5,88,0.00,OVC,,0.22,WeatherDisplay:10.37,2013-01-31 01:24:00,
2013-01-30 20:29:00,56.4,52.9,29.15,North,360,8.2,13.8,88,0.00,OVC,,0.22,WeatherDisplay:10.37,2013-01-31 01:29:00,
2013-01-30 20:34:00,56.4,52.9,29.15,North,360,5.1,8.1,88,0.00,OVC,,0.22,WeatherDisplay:10.37,2013-01-31 01:34:00,
2013-01-30 20:39:00,56.4,52.9,29.13,North,360,7.0,11.5,88,0.00,OVC,,0.22,WeatherDisplay:10.37,2013-01-31 01:39:00,
2013-01-30 20:44:00,56.4,52.9,29.12,North,360,4.7,6.9,88,0.00,OVC,,0.22,WeatherDisplay:10.37,2013-01-31 01:44:00,
2013-01-30 20:49:00,56.3,52.8,29.12,North,360,5.3,7.0,88,0.00,OVC,,0.22,WeatherDisplay:10.37,2013-01-31 01:49:00,
2013-01-30 20:54:00,56.4,52.9,29.13,North,360,6.7,11.5,88,0.00,OVC,,0.22,WeatherDisplay:10.37,2013-01-31 01:54:00,
2013-01-30 20:59:00,56.4,52.6,29.13,North,360,9.7,16.1,87,0.00,OVC,,0.22,WeatherDisplay:10.37,2013-01-31 01:59:00,
2013-01-30 21:04:00,56.4,52.6,29.13,North,360,7.4,12.7,87,0.00,OVC,,0.22,WeatherDisplay:10.37,2013-01-31 02:04:00,
2013-01-30 21:09:00,56.5,52.7,29.14,North,360,9.5,11.5,87,0.00,OVC,,0.22,WeatherDisplay:10.37,2013-01-31 02:09:00,
2013-01-30 21:14:00,56.5,52.7,29.13,North,360,10.4,13.8,87,0.00,OVC,,0.22,WeatherDisplay:10.37,2013-01-31 02:14:00,
2013-01-30 21:19:00,56.3,52.8,29.12,North,360,7.3,11.5,88,0.01,RA,,0.23,WeatherDisplay:10.37,2013-01-31 02:19:00,
2013-01-30 21:24:00,55.9,52.7,29.13,North,360,9.9,11.5,89,0.02,RA,,0.24,WeatherDisplay:10.37,2013-01-31 02:24:00,
2013-01-30 21:29:00,55.4,52.8,29.15,North,360,10.4,12.7,91,0.02,RA,,0.24,WeatherDisplay:10.37,2013-01-31 02:29:00,
2013-01-30 21:34:00,54.6,51.7,29.14,North,360,8.9,12.7,90,0.02,OVC,,0.25,WeatherDisplay:10.37,2013-01-31 02:34:00,
2013-01-30 21:39:00,53.5,50.0,29.15,North,360,7.4,12.0,88,0.03,RA,,0.25,WeatherDisplay:10.37,2013-01-31 02:39:00,
2013-01-30 21:44:00,52.9,49.4,29.14,North,360,7.8,11.5,88,0.03,RA,,0.25,WeatherDisplay:10.37,2013-01-31 02:44:00,
2013-01-30 21:49:00,52.6,49.4,29.15,North,360,5.4,8.1,89,0.03,OVC,,0.25,WeatherDisplay:10.37,2013-01-31 02:49:00,
2013-01-30 21:54:00,52.4,49.6,29.15,North,360,7.9,17.3,90,0.03,OVC,,0.25,WeatherDisplay:10.37,2013-01-31 02:54:00,
2013-01-30 21:59:00,52.5,49.4,29.15,North,360,7.8,18.4,89,0.03,OVC,,0.25,WeatherDisplay:10.37,2013-01-31 02:59:00,
2013-01-30 22:04:00,52.6,49.1,29.15,North,360,11.1,18.4,88,0.03,-RA,,0.25,WeatherDisplay:10.37,2013-01-31 03:04:00,
2013-01-30 22:09:00,52.7,48.9,29.15,North,360,10.2,15.0,87,0.03,-RA,,0.25,WeatherDisplay:10.37,2013-01-31 03:09:00,
2013-01-30 22:14:00,52.7,48.3,29.13,North,360,9.3,15.0,85,0.03,-RA,,0.25,WeatherDisplay:10.37,2013-01-31 03:14:00,
2013-01-30 22:19:00,52.7,48.6,29.14,North,360,5.7,18.0,86,0.02,-RA,,0.25,WeatherDisplay:10.37,2013-01-31 03:19:00,
2013-01-30 22:24:00,52.7,48.0,29.13,North,360,5.1,10.4,84,0.01,-RA,,0.25,WeatherDisplay:10.37,2013-01-31 03:24:00,
2013-01-30 22:29:00,52.5,47.2,29.12,North,360,6.9,12.7,82,0.01,-RA,,0.25,WeatherDisplay:10.37,2013-01-31 03:29:00,
2013-01-30 22:34:00,52.5,46.8,29.12,North,360,9.6,18.4,81,0.01,-RA,,0.25,WeatherDisplay:10.37,2013-01-31 03:34:00,
2013-01-30 22:39:00,52.6,46.9,29.12,North,360,6.1,16.1,81,0.00,-RA,,0.25,WeatherDisplay:10.37,2013-01-31 03:39:00,
2013-01-30 22:45:00,52.6,46.6,29.12,North,360,9.0,11.5,80,0.00,-RA,,0.25,WeatherDisplay:10.37,2013-01-31 03:45:00,
2013-01-30 22:50:00,52.7,46.7,29.13,North,360,8.5,16.0,80,0.00,-RA,,0.25,WeatherDisplay:10.37,2013-01-31 03:50:00,
2013-01-30 22:55:00,52.7,46.4,29.13,North,360,5.3,15.0,79,0.00,-RA,,0.25,WeatherDisplay:10.37,2013-01-31 03:55:00,
2013-01-30 23:00:00,52.8,46.1,29.12,North,360,11.4,11.5,78,0.00,-RA,,0.25,WeatherDisplay:10.37,2013-01-31 04:00:00,
2013-01-30 23:05:00,52.9,45.9,29.12,North,360,14.4,15.0,77,0.00,-RA,,0.25,WeatherDisplay:10.37,2013-01-31 04:05:00,
2013-01-30 23:10:00,52.2,44.5,29.15,North,360,11.0,29.9,75,0.00,-RA,,0.25,WeatherDisplay:10.37,2013-01-31 04:10:00,
2013-01-30 23:15:00,49.2,42.6,29.17,WNW,289,13.2,21.9,78,0.00,-RA,,0.25,WeatherDisplay:10.37,2013-01-31 04:15:00,
2013-01-30 23:20:00,46.8,41.3,29.18,North,360,15.0,32.2,81,0.00,-RA,,0.26,WeatherDisplay:10.37,2013-01-31 04:20:00,
2013-01-30 23:25:00,44.6,40.4,29.18,West,263,11.1,19.6,85,0.01,-RA,,0.26,WeatherDisplay:10.37,2013-01-31 04:25:00,
2013-01-30 23:30:00,43.2,39.6,29.19,WNW,282,10.4,19.6,87,0.01,-RA,,0.26,WeatherDisplay:10.37,2013-01-31 04:30:00,
2013-01-30 23:35:00,41.8,38.2,29.19,WNW,294,16.6,31.1,87,0.01,-RA,,0.26,WeatherDisplay:10.37,2013-01-31 04:35:00,
2013-01-30 23:40:00,40.3,36.4,29.20,West,278,13.5,28.8,86,0.01,-RA,,0.26,WeatherDisplay:10.37,2013-01-31 04:40:00,
2013-01-30 23:45:00,39.3,36.0,29.22,WNW,290,12.5,27.6,88,0.01,-RA,,0.27,WeatherDisplay:10.37,2013-01-31 04:45:00,
2013-01-30 23:50:00,38.7,35.7,29.24,WNW,290,20.3,36.8,89,0.02,-RA,,0.27,WeatherDisplay:10.37,2013-01-31 04:50:00,
2013-01-30 23:55:00,38.6,35.4,29.25,WSW,252,9.2,24.2,88,0.02,-RA,,0.27,WeatherDisplay:10.37,2013-01-31 04:55:00,